TimeMST,TemperatureF,Dew PointF,Humidity,Sea Level PressureIn,VisibilityMPH,Wind Direction,Wind SpeedMPH,Gust SpeedMPH,PrecipitationIn,Events,Conditions,WindDirDegrees,DateUTC
12:53 AM,16.0,10.9,81,30.31,10.0,NNE,3.5,-,N/A,,Overcast,20,2013-01-24 07:53:00
1:53 AM,18.0,12.9,81,30.27,10.0,NNE,5.8,-,N/A,,Overcast,30,2013-01-24 08:53:00
2:53 AM,19.9,14.0,78,30.28,10.0,Calm,Calm,-,N/A,,Overcast,0,2013-01-24 09:53:00
3:53 AM,19.9,14.0,78,30.27,10.0,Calm,Calm,-,N/A,,Overcast,0,2013-01-24 10:53:00
4:53 AM,21.0,15.1,78,30.28,10.0,ENE,3.5,-,N/A,,Overcast,70,2013-01-24 11:53:00
5:53 AM,21.9,17.1,82,30.32,10.0,South,5.8,-,N/A,,Overcast,190,2013-01-24 12:53:00
6:53 AM,25.0,19.9,81,30.32,10.0,Calm,Calm,-,N/A,,Overcast,0,2013-01-24 13:53:00
7:53 AM,27.0,21.0,78,30.35,10.0,South,4.6,-,N/A,,Overcast,180,2013-01-24 14:53:00
8:53 AM,34.0,24.1,67,30.33,10.0,SSW,8.1,-,N/A,,Overcast,200,2013-01-24 15:53:00
9:53 AM,34.0,26.1,73,30.35,10.0,SSW,10.4,-,N/A,,Overcast,210,2013-01-24 16:53:00
10:53 AM,35.1,27.0,72,30.35,10.0,SSW,9.2,-,N/A,,Overcast,200,2013-01-24 17:53:00
10:58 AM,35.6,26.6,70,30.24,10.0,SSW,9.2,-,N/A,,Overcast,200,2013-01-24 17:58:00
11:53 AM,36.0,28.0,73,30.33,10.0,SSW,12.7,-,N/A,,Overcast,200,2013-01-24 18:53:00
12:53 PM,36.0,30.0,79,30.32,10.0,SW,12.7,-,0.00,,Overcast,230,2013-01-24 19:53:00
1:53 PM,36.0,30.0,79,30.32,10.0,SW,11.5,-,N/A,,Overcast,220,2013-01-24 20:53:00
2:53 PM,39.0,32.0,76,30.29,10.0,SSW,11.5,-,N/A,,Overcast,200,2013-01-24 21:53:00
3:53 PM,37.0,32.0,82,30.31,10.0,SSW,6.9,-,N/A,,Mostly Cloudy,210,2013-01-24 22:53:00
4:53 PM,37.0,30.9,79,30.32,10.0,SSW,6.9,-,N/A,,Scattered Clouds,210,2013-01-24 23:53:00
5:53 PM,35.1,30.9,85,30.33,10.0,SW,8.1,-,N/A,,Mostly Cloudy,230,2013-01-25 00:53:00
6:53 PM,37.0,30.9,79,30.33,10.0,South,8.1,-,N/A,,Overcast,190,2013-01-25 01:53:00
7:53 PM,34.0,30.0,85,30.33,10.0,SW,8.1,-,N/A,,Overcast,230,2013-01-25 02:53:00
8:50 PM,33.8,30.2,87,30.27,10.0,SSW,9.2,-,N/A,,Overcast,200,2013-01-25 03:50:00
8:53 PM,34.0,30.0,85,30.32,10.0,SSW,10.4,-,N/A,,Mostly Cloudy,200,2013-01-25 03:53:00
9:53 PM,37.0,30.9,79,30.31,10.0,SSW,10.4,-,N/A,,Overcast,200,2013-01-25 04:53:00
10:53 PM,37.9,32.0,79,30.30,10.0,Calm,Calm,-,N/A,,Overcast,0,2013-01-25 05:53:00
11:53 PM,37.9,32.0,79,30.32,10.0,South,10.4,-,N/A,,Overcast,190,2013-01-25 06:53:00